Weather in Dibrugarh

India     27°29′54″N   94°57′05″E
temp.,
°C
wind,
m/s
gust,
m/s
humid.,
%
clouds,
%
prec.,
mm/h
press.,
hPa
HPBL,
m
6 march, sat
sat623:30+18ene376574 0.6 1016253
02:30+19nne496496 0.1 1015370
05:30+17nne4106660 0.1 1016364
08:30+22ne354951 0.0 1018820
11:30+27nne443430 0.0 10161450
14:30+29n23297 0.0 10142482
17:30+23n484525 0.1 1015239
20:30+19wnw126128 0.4 101840
7 march, sun
sun723:30+18ne226930 0.5 101781
02:30+18ne366880 0.0 1016251
05:30+18nne256789 0.0 1017225
08:30+23nne344965 0.0 1018501
11:30+28nne223250 0.0 10161377
14:30+31n02260 0.0 10132051
17:30+24ne11350 0.0 101524
20:30+21ne22438 0.0 101834
8 march, mon
mon823:30+22nne224250 0.0 101856
02:30+21ne474598 0.0 1016261
05:30+18ne235474 0.0 101761
08:30+24ne233752 0.0 1018346
11:30+31e122559 0.0 10161128
14:30+33sse12221 0.0 10132398
17:30+26sse11301 0.0 101424
20:30+22wsw12478 0.0 101729
9 march, tue
tue923:30+23n114453 0.0 101630
02:30+22ne244480 0.0 1015114
05:30+20nne124662 0.0 101629
08:30+25n233859 0.0 1017422
11:30+29nw213037 0.0 1015937
14:30+31w12240 0.0 10132248
17:30+26nne11330 0.0 101424
20:30+23ne22420 0.0 101727
10 march, wed
wed1023:30+22ne234239 0.0 101680
02:30+20nne365259 0.0 1015141
05:30+20nne125068 0.0 101680
08:30+24nne244096 0.0 1017357
11:30+29ssw113286 0.0 1015796
14:30+32sw11262 0.0 10122020
17:30+26wsw11361 0.0 101432
20:30+23ne23450 0.0 101652